Ranger Creek, WA

5:59 PM PDT on April 21, 2018 (GMT -0700)
Deep Creek Cabin | | Change Station

Elev 2799 ft 47.01 °N, 121.52 °W | Updated 3 minutes ago

Overcast
Overcast
43.3 °F
Feels Like 43 °F
N
1.7
Wind Variable Wind from ESE
Gusts 2.7 mph

Today
High -- | Low -- °F
--% Chance of Precip.
Yesterday
High -- | Low -- °F
Precip. -- in
Pressure 30.31 in
Visibility 10.0 miles
Clouds Few 1300 ft
Scattered Clouds 2900 ft
Overcast 4700 ft
Windchill 43 °F
Dew Point 32 °F
Humidity 64%
Rainfall 0.04 in
Snow Depth Not available.
6:07 AM 8:03 PM
Waxing Crescent, 40% visible
SPECI KSMP 220019Z AUTO VRB04KT 10SM FEW013 SCT029 OVC047 02/M01 A3031 RMK AO2 T00221011
Pressure 30.31 in
Visibility 10.0 miles
Clouds Few 1300 ft
Scattered Clouds 2900 ft
Overcast 4700 ft
Windchill 43 °F
Dew Point 32 °F
Humidity 64%
Rainfall 0.04 in
Snow Depth Not available.
6:07 AM 8:03 PM
Waxing Crescent, 40% visible
SPECI KSMP 220019Z AUTO VRB04KT 10SM FEW013 SCT029 OVC047 02/M01 A3031 RMK AO2 T00221011

Get Severe Weather Alerts

Thanks for signing up!

Be on the lookout for a verification email in your inbox.

You'll start receiving the daily forecast at 6 AM.

×

10-Day Weather Forecast

Almanac

Astronomy

Apr. 21, 2018 Rise Set
Actual Time
Civil Twilight
Nautical Twilight
Astronomical Twilight
Moon
Length of Visible Light
Length of Day
Tomorrow will be .
, % of the Moon is Illuminated

Today's Extremes

State Highs State Lows

Community

WunderPhotos

Category 6

Welcome to Category 6. This is the collective home for Weather Underground's featured writeups by Dr. Jeff Masters (right), Bob Henson (left), Chris Burt, and other regular contributors.

Nearby

Air Quality

  Air Quality AQ Index Pollutant
Not available.

Snow Depth

Station Depth Elevation

Earthquake Activity

City Distance Mag. Time & Date
Minimum magnitude displayed is 2.5.

Coastal Water Temperatures

Place Temperature

Stations

Nearby Weather Stations

Station Location Temp. Windchill Dew Point Humidity Wind Precip. Elev Updated Type
                   

Watches & Warnings

There are currently no watches in effect.